SDM6520 UUWW-LCPH

Flight info

Callsign SDM6520
Flight time 3h 13m
Altitude 35000
Route LINRU L4 EKTUT N72 UMSIS N166 ABLOG/K0895F360 DCT AMEPU/K0896F350 W70 TEMGI/K0896F370 W70 BALEG G247 SM G900 KUTON/K0902F360 G900 ODIRA/N0494F280 W96 SIN/N0486F360 UT61 BAG/N0489F270 W77 AYT M855 DASNI
Aircraft B77W/H-SDE1E2E3FGHIJ2J3J4J5M1RWXY/LB1D1

Departure

Time 2026-05-07 11:32
Airport Vnukovo International Airport (UUWW)

Arrival

Time 2026-05-07 14:46
Airport Paphos International Airport (LCPH)
Time Latitude Longitude Altitude Speed Heading
2026-05-07 11:10 55.60381 37.28043 684 ft 0 kts 135°
2026-05-07 11:22 55.60389 37.28030 677 ft 4 kts 135°
2026-05-07 11:23 55.60402 37.28006 680 ft 3 kts 135°
2026-05-07 11:23 55.60416 37.27984 677 ft 3 kts 159°
2026-05-07 11:23 55.60435 37.27979 677 ft 3 kts 198°
2026-05-07 11:23 55.60452 37.27992 677 ft 3 kts 197°
2026-05-07 11:24 55.60470 37.28002 677 ft 2 kts 223°
2026-05-07 11:24 55.60471 37.28002 677 ft 0 kts 223°
2026-05-07 11:27 55.60469 37.27999 677 ft 3 kts 226°
2026-05-07 11:28 55.60418 37.27905 676 ft 13 kts 218°
2026-05-07 11:28 55.60333 37.27858 679 ft 13 kts 188°
2026-05-07 11:28 55.60244 37.27844 679 ft 13 kts 181°
2026-05-07 11:28 55.60159 37.27888 679 ft 13 kts 144°
2026-05-07 11:29 55.60095 37.27999 681 ft 13 kts 123°
2026-05-07 11:29 55.60077 37.28179 684 ft 16 kts 87°
2026-05-07 11:29 55.60089 37.28373 684 ft 16 kts 76°
2026-05-07 11:29 55.60149 37.28535 678 ft 16 kts 47°
2026-05-07 11:30 55.60206 37.28658 680 ft 13 kts 67°
2026-05-07 11:30 55.60167 37.28793 680 ft 13 kts 139°
2026-05-07 11:30 55.60087 37.28873 680 ft 13 kts 161°
2026-05-07 11:30 55.59999 37.28920 685 ft 13 kts 167°
2026-05-07 11:31 55.59908 37.28954 687 ft 13 kts 168°
2026-05-07 11:31 55.59817 37.28974 689 ft 13 kts 196°
2026-05-07 11:31 55.59772 37.28884 688 ft 14 kts 242°
2026-05-07 11:31 55.59670 37.28436 687 ft 75 kts 248°
2026-05-07 11:32 55.58953 37.25293 808 ft 180 kts 247°
2026-05-07 11:32 55.58486 37.23204 1442 ft 182 kts 246°
2026-05-07 11:32 55.57723 37.21469 2100 ft 188 kts 214°
2026-05-07 11:33 55.56571 37.20315 2622 ft 188 kts 225°
2026-05-07 11:33 55.55813 37.18327 2903 ft 202 kts 243°
2026-05-07 11:33 55.55126 37.16116 3488 ft 210 kts 241°
2026-05-07 11:33 55.54310 37.13953 4074 ft 215 kts 227°
2026-05-07 11:34 55.52958 37.12713 4588 ft 227 kts 191°
2026-05-07 11:34 55.51397 37.12504 5240 ft 227 kts 193°
2026-05-07 11:34 55.49843 37.12061 5863 ft 227 kts 195°
2026-05-07 11:34 55.48210 37.11925 6274 ft 247 kts 171°
2026-05-07 11:35 55.46660 37.13361 6861 ft 260 kts 145°
2026-05-07 11:35 55.45264 37.15567 7240 ft 278 kts 143°
2026-05-07 11:35 55.43782 37.17846 7862 ft 286 kts 145°
2026-05-07 11:35 55.42238 37.20083 8581 ft 290 kts 147°
2026-05-07 11:36 55.40666 37.22257 9359 ft 291 kts 148°
2026-05-07 11:36 55.39052 37.24437 10105 ft 294 kts 148°
2026-05-07 11:36 55.37413 37.26632 10813 ft 298 kts 148°
2026-05-07 11:36 55.35826 37.29050 11548 ft 305 kts 140°
2026-05-07 11:37 55.34365 37.31795 12418 ft 310 kts 137°
2026-05-07 11:37 55.32794 37.34338 13188 ft 306 kts 153°
2026-05-07 11:37 55.30920 37.36126 13935 ft 309 kts 157°
2026-05-07 11:37 55.28987 37.37850 14666 ft 314 kts 157°
2026-05-07 11:38 55.27028 37.39611 15480 ft 318 kts 157°
2026-05-07 11:38 55.25050 37.41409 16282 ft 322 kts 156°
2026-05-07 11:38 55.23048 37.43243 17078 ft 327 kts 156°
2026-05-07 11:38 55.21018 37.45114 17875 ft 332 kts 156°
2026-05-07 11:39 55.18959 37.47019 18594 ft 337 kts 156°
2026-05-07 11:39 55.16877 37.48952 19335 ft 340 kts 156°
2026-05-07 11:39 55.14775 37.50906 20091 ft 343 kts 156°
2026-05-07 11:39 55.12696 37.52838 20829 ft 346 kts 156°
2026-05-07 11:40 55.10561 37.54821 21556 ft 349 kts 155°
2026-05-07 11:40 55.08404 37.56823 22292 ft 353 kts 155°
2026-05-07 11:40 55.06224 37.58843 23009 ft 357 kts 155°
2026-05-07 11:40 55.04019 37.60884 23677 ft 361 kts 155°
2026-05-07 11:41 55.01783 37.62952 24199 ft 367 kts 155°
2026-05-07 11:41 54.99506 37.65054 24770 ft 371 kts 155°
2026-05-07 11:41 54.97216 37.67168 25420 ft 374 kts 155°
2026-05-07 11:41 54.94911 37.69293 26040 ft 376 kts 155°
2026-05-07 11:42 54.92590 37.71428 26635 ft 380 kts 155°
2026-05-07 11:42 54.90241 37.73586 27217 ft 384 kts 155°
2026-05-07 11:42 54.87862 37.75770 27795 ft 388 kts 155°
2026-05-07 11:42 54.85466 37.77966 28369 ft 391 kts 155°
2026-05-07 11:43 54.83052 37.80175 28939 ft 395 kts 155°
2026-05-07 11:43 54.80608 37.82409 29506 ft 399 kts 155°
2026-05-07 11:43 54.78135 37.84665 29898 ft 407 kts 155°
2026-05-07 11:43 54.75584 37.86986 30002 ft 420 kts 154°
2026-05-07 11:44 54.72953 37.89378 30115 ft 434 kts 154°
2026-05-07 11:44 54.70238 37.91844 30234 ft 446 kts 154°
2026-05-07 11:44 54.67460 37.94365 30327 ft 458 kts 154°
2026-05-07 11:44 54.64596 37.96959 30419 ft 469 kts 154°
2026-05-07 11:45 54.61672 37.99605 30513 ft 480 kts 154°
2026-05-07 11:45 54.58694 38.02295 30641 ft 488 kts 154°
2026-05-07 11:45 54.55659 38.05032 30821 ft 494 kts 154°
2026-05-07 11:45 54.52604 38.07784 31100 ft 497 kts 154°
2026-05-07 11:46 54.49575 38.10507 31475 ft 496 kts 154°
2026-05-07 11:46 54.46486 38.13281 31969 ft 494 kts 154°
2026-05-07 11:46 54.43443 38.16008 32450 ft 492 kts 154°
2026-05-07 11:46 54.40408 38.18721 32861 ft 492 kts 154°
2026-05-07 11:47 54.37373 38.21418 33248 ft 491 kts 155°
2026-05-07 11:47 54.35321 38.23048 33505 ft 490 kts 159°
2026-05-07 11:47 54.31075 38.25605 33993 ft 486 kts 167°
2026-05-07 11:47 54.27795 38.26981 34321 ft 485 kts 168°
2026-05-07 11:48 54.24513 38.28334 34611 ft 485 kts 168°
2026-05-07 11:48 54.21234 38.29702 34917 ft 485 kts 168°
2026-05-07 11:48 54.19021 38.30636 35128 ft 484 kts 168°
2026-05-07 11:48 54.15765 38.32022 35450 ft 483 kts 168°
2026-05-07 11:49 54.12540 38.33405 35723 ft 483 kts 168°
2026-05-07 11:49 54.09272 38.34808 35858 ft 486 kts 168°
2026-05-07 11:49 54.05980 38.36219 35916 ft 488 kts 168°
2026-05-07 11:50 53.99404 38.39035 35917 ft 484 kts 168°
2026-05-07 11:50 53.92889 38.41813 35931 ft 481 kts 168°
2026-05-07 11:51 53.86402 38.44567 35931 ft 480 kts 168°
2026-05-07 11:51 53.79921 38.47311 35933 ft 480 kts 168°
2026-05-07 11:52 53.73443 38.50036 35954 ft 480 kts 168°
2026-05-07 11:52 53.66896 38.52313 35948 ft 480 kts 171°
2026-05-07 11:53 53.60314 38.54358 35936 ft 482 kts 171°
2026-05-07 11:53 53.53720 38.56449 35957 ft 482 kts 171°
2026-05-07 11:54 53.47166 38.58581 35953 ft 483 kts 171°
2026-05-07 11:54 53.40561 38.60742 35929 ft 484 kts 171°
2026-05-07 11:55 53.33954 38.62897 35955 ft 484 kts 171°
2026-05-07 11:55 53.27342 38.65042 35954 ft 484 kts 171°
2026-05-07 11:56 53.20732 38.67179 35934 ft 484 kts 171°
2026-05-07 11:56 53.14125 38.69309 35952 ft 483 kts 171°
2026-05-07 11:57 53.07522 38.71433 35953 ft 483 kts 171°
2026-05-07 11:57 53.00914 38.73549 35955 ft 483 kts 171°
2026-05-07 11:58 52.94315 38.75654 35952 ft 483 kts 171°
2026-05-07 11:58 52.87718 38.77754 35955 ft 482 kts 170°
2026-05-07 11:59 52.81171 38.79833 35957 ft 482 kts 170°
2026-05-07 11:59 52.74583 38.81918 35955 ft 482 kts 171°
2026-05-07 12:00 52.67990 38.84001 35946 ft 482 kts 171°
2026-05-07 12:00 52.61408 38.86067 35957 ft 482 kts 171°
2026-05-07 12:01 52.54818 38.88132 35963 ft 482 kts 171°
2026-05-07 12:01 52.48212 38.90198 35962 ft 482 kts 170°
2026-05-07 12:02 52.41646 38.92474 35966 ft 483 kts 164°
2026-05-07 12:02 52.35457 38.96767 35970 ft 485 kts 152°
2026-05-07 12:03 52.29797 39.02837 35971 ft 486 kts 146°
2026-05-07 12:03 52.24182 39.09015 35972 ft 487 kts 147°
2026-05-07 12:04 52.18539 39.15015 35965 ft 487 kts 148°
2026-05-07 12:04 52.12843 39.21007 35975 ft 487 kts 148°
2026-05-07 12:05 52.07158 39.27016 35975 ft 487 kts 148°
2026-05-07 12:05 52.01481 39.33030 35985 ft 487 kts 148°
2026-05-07 12:06 51.95792 39.39038 35979 ft 487 kts 148°
2026-05-07 12:06 51.90106 39.45019 35979 ft 487 kts 148°
2026-05-07 12:07 51.84412 39.50991 35977 ft 487 kts 148°
2026-05-07 12:07 51.78763 39.56900 35969 ft 487 kts 148°
2026-05-07 12:08 51.72954 39.62501 35968 ft 486 kts 155°
2026-05-07 12:08 51.66655 39.66407 35979 ft 484 kts 162°
2026-05-07 12:09 51.60252 39.69784 35972 ft 484 kts 162°
2026-05-07 12:09 51.53858 39.73204 35974 ft 484 kts 162°
2026-05-07 12:10 51.47473 39.76653 35977 ft 484 kts 162°
2026-05-07 12:10 51.41082 39.80103 35977 ft 484 kts 162°
2026-05-07 12:11 51.34690 39.83542 35969 ft 485 kts 162°
2026-05-07 12:11 51.28290 39.86973 35976 ft 485 kts 162°
2026-05-07 12:12 51.21918 39.90378 35971 ft 485 kts 162°
2026-05-07 12:12 51.15510 39.93794 35975 ft 486 kts 162°
2026-05-07 12:13 51.09105 39.97197 35982 ft 485 kts 162°
2026-05-07 12:13 51.02688 40.00573 35969 ft 485 kts 162°
2026-05-07 12:14 50.96283 40.03934 35966 ft 484 kts 162°
2026-05-07 12:14 50.89879 40.07289 35972 ft 484 kts 162°
2026-05-07 12:15 50.83490 40.10626 35973 ft 483 kts 162°
2026-05-07 12:15 50.77141 40.13935 35972 ft 483 kts 162°
2026-05-07 12:16 50.70762 40.17251 35977 ft 483 kts 162°
2026-05-07 12:16 50.64363 40.20568 35978 ft 484 kts 162°
2026-05-07 12:17 50.57968 40.23875 35964 ft 484 kts 162°
2026-05-07 12:17 50.51559 40.27179 35972 ft 485 kts 162°
2026-05-07 12:18 50.45142 40.30477 35985 ft 486 kts 162°
2026-05-07 12:18 50.38716 40.33772 35970 ft 486 kts 162°
2026-05-07 12:19 50.32292 40.37056 35971 ft 485 kts 162°
2026-05-07 12:19 50.25875 40.40327 35965 ft 485 kts 161°
2026-05-07 12:20 50.19456 40.43589 35980 ft 484 kts 161°
2026-05-07 12:20 50.13095 40.46815 35974 ft 484 kts 161°
2026-05-07 12:21 50.06695 40.50051 35972 ft 483 kts 162°
2026-05-07 12:21 50.00299 40.53278 35977 ft 483 kts 161°
2026-05-07 12:22 49.93899 40.56501 35979 ft 484 kts 161°
2026-05-07 12:22 49.87495 40.59718 35981 ft 484 kts 161°
2026-05-07 12:23 49.81082 40.62932 35977 ft 484 kts 161°
2026-05-07 12:23 49.74661 40.66142 35982 ft 485 kts 161°
2026-05-07 12:24 49.68214 40.69320 35983 ft 486 kts 164°
2026-05-07 12:24 49.61540 40.71107 35990 ft 488 kts 175°
2026-05-07 12:25 49.54738 40.71118 35994 ft 489 kts 181°
2026-05-07 12:25 49.47974 40.70813 35984 ft 489 kts 181°
2026-05-07 12:26 49.41162 40.70598 35990 ft 488 kts 180°
2026-05-07 12:26 49.34379 40.70407 35983 ft 487 kts 180°
2026-05-07 12:27 49.27602 40.70231 35986 ft 487 kts 180°
2026-05-07 12:27 49.20825 40.70058 35991 ft 487 kts 180°
2026-05-07 12:28 49.14041 40.69879 35989 ft 488 kts 180°
2026-05-07 12:28 49.07250 40.69702 35997 ft 488 kts 180°
2026-05-07 12:29 49.00449 40.69525 36006 ft 488 kts 180°
2026-05-07 12:29 48.93655 40.69336 35996 ft 488 kts 181°
2026-05-07 12:30 48.86921 40.68024 36003 ft 488 kts 190°
2026-05-07 12:30 48.80243 40.65980 36004 ft 489 kts 191°
2026-05-07 12:31 48.73562 40.63987 36005 ft 489 kts 190°
2026-05-07 12:31 48.66922 40.62057 35998 ft 489 kts 190°
2026-05-07 12:32 48.60203 40.60120 36005 ft 489 kts 190°
2026-05-07 12:32 48.53553 40.58204 36007 ft 489 kts 190°
2026-05-07 12:33 48.43525 40.55321 36005 ft 489 kts 190°
2026-05-07 12:33 48.36839 40.53417 36013 ft 489 kts 190°
2026-05-07 12:34 48.30140 40.51518 36012 ft 489 kts 190°
2026-05-07 12:34 48.24583 40.49945 36015 ft 489 kts 190°
2026-05-07 12:35 48.16768 40.47735 36010 ft 489 kts 190°
2026-05-07 12:35 48.11209 40.46168 36021 ft 489 kts 190°
2026-05-07 12:36 48.04522 40.44288 36030 ft 489 kts 190°
2026-05-07 12:36 47.97831 40.42412 36043 ft 488 kts 190°
2026-05-07 12:37 47.91152 40.40542 36038 ft 488 kts 190°
2026-05-07 12:37 47.84474 40.38609 36037 ft 489 kts 194°
2026-05-07 12:38 47.78094 40.35147 36059 ft 489 kts 205°
2026-05-07 12:38 47.72213 40.30075 36057 ft 489 kts 212°
2026-05-07 12:39 47.66475 40.24724 36059 ft 490 kts 212°
2026-05-07 12:39 47.60678 40.19387 36070 ft 491 kts 211°
2026-05-07 12:40 47.54860 40.14092 36077 ft 491 kts 211°
2026-05-07 12:40 47.49041 40.08819 36077 ft 490 kts 211°
2026-05-07 12:41 47.43222 40.03557 36076 ft 490 kts 211°
2026-05-07 12:41 47.37405 39.98307 36078 ft 490 kts 211°
2026-05-07 12:42 47.31579 39.93062 36078 ft 490 kts 211°
2026-05-07 12:42 47.25765 39.87841 36085 ft 489 kts 211°
2026-05-07 12:43 47.19777 39.83103 36094 ft 488 kts 202°
2026-05-07 12:43 47.13317 39.80058 36106 ft 488 kts 192°
2026-05-07 12:44 47.06704 39.77798 36104 ft 488 kts 192°
2026-05-07 12:44 47.00117 39.75532 36109 ft 489 kts 193°
2026-05-07 12:45 46.93498 39.73213 36111 ft 489 kts 193°
2026-05-07 12:45 46.86873 39.70880 36113 ft 489 kts 193°
2026-05-07 12:46 46.80249 39.68554 36118 ft 489 kts 193°
2026-05-07 12:46 46.73640 39.66241 36116 ft 489 kts 193°
2026-05-07 12:47 46.67023 39.63931 36125 ft 489 kts 192°
2026-05-07 12:47 46.60397 39.61625 36124 ft 490 kts 192°
2026-05-07 12:48 46.53811 39.59338 36134 ft 490 kts 193°
2026-05-07 12:48 46.47182 39.57042 36133 ft 490 kts 193°
2026-05-07 12:49 46.40548 39.54748 36139 ft 490 kts 192°
2026-05-07 12:49 46.33902 39.52534 36140 ft 490 kts 191°
2026-05-07 12:50 46.27223 39.50533 36133 ft 490 kts 191°
2026-05-07 12:50 46.20543 39.48547 36134 ft 490 kts 191°
2026-05-07 12:51 46.13859 39.46533 36139 ft 490 kts 191°
2026-05-07 12:51 46.07179 39.44511 36122 ft 490 kts 191°
2026-05-07 12:52 46.00508 39.42498 36146 ft 490 kts 190°
2026-05-07 12:52 45.93829 39.40490 36141 ft 490 kts 191°
2026-05-07 12:53 45.87147 39.38483 36144 ft 491 kts 191°
2026-05-07 12:53 45.80460 39.36438 36142 ft 491 kts 191°
2026-05-07 12:54 45.73825 39.34400 36153 ft 491 kts 191°
2026-05-07 12:54 45.67146 39.32343 36155 ft 491 kts 192°
2026-05-07 12:55 45.60679 39.29201 36172 ft 492 kts 202°
2026-05-07 12:55 45.54373 39.25348 36156 ft 493 kts 202°
2026-05-07 12:56 45.48048 39.21525 36162 ft 493 kts 201°
2026-05-07 12:56 45.41763 39.17784 36165 ft 493 kts 201°
2026-05-07 12:57 45.35431 39.14039 36164 ft 493 kts 201°
2026-05-07 12:57 45.29096 39.10301 36166 ft 493 kts 201°
2026-05-07 12:58 45.22761 39.06569 36162 ft 493 kts 201°
2026-05-07 12:58 45.16429 39.02847 36161 ft 492 kts 201°
2026-05-07 12:59 45.10091 38.99131 36167 ft 492 kts 201°
2026-05-07 12:59 45.03751 38.95422 36161 ft 492 kts 201°
2026-05-07 13:00 44.97417 38.91726 36173 ft 492 kts 201°
2026-05-07 13:00 44.91075 38.88033 36176 ft 493 kts 201°
2026-05-07 13:01 44.84778 38.84375 36173 ft 493 kts 201°
2026-05-07 13:01 44.78462 38.80608 36171 ft 493 kts 205°
2026-05-07 13:02 44.72585 38.75603 36180 ft 494 kts 214°
2026-05-07 13:02 44.66960 38.70041 36185 ft 494 kts 214°
2026-05-07 13:03 44.61309 38.64524 36178 ft 495 kts 214°
2026-05-07 13:03 44.55630 38.59046 36185 ft 495 kts 214°
2026-05-07 13:04 44.49951 38.53591 36193 ft 495 kts 214°
2026-05-07 13:04 44.44274 38.48146 36196 ft 495 kts 214°
2026-05-07 13:05 44.38632 38.42743 36205 ft 495 kts 214°
2026-05-07 13:05 44.32962 38.37291 36197 ft 495 kts 214°
2026-05-07 13:06 44.27314 38.31806 36199 ft 494 kts 214°
2026-05-07 13:06 44.21600 38.26474 36204 ft 494 kts 212°
2026-05-07 13:07 44.15830 38.21252 36204 ft 494 kts 212°
2026-05-07 13:07 44.10077 38.16018 36204 ft 494 kts 213°
2026-05-07 13:08 44.04362 38.10805 36198 ft 494 kts 213°
2026-05-07 13:08 43.98634 38.05551 36202 ft 494 kts 213°
2026-05-07 13:09 43.92914 38.00245 36203 ft 494 kts 213°
2026-05-07 13:09 43.87183 37.94986 36209 ft 494 kts 213°
2026-05-07 13:10 43.81429 37.89753 36213 ft 494 kts 213°
2026-05-07 13:10 43.75717 37.84564 36208 ft 494 kts 213°
2026-05-07 13:11 43.69960 37.79339 36204 ft 494 kts 213°
2026-05-07 13:11 43.64207 37.74128 36207 ft 494 kts 213°
2026-05-07 13:12 43.58439 37.68916 36204 ft 494 kts 213°
2026-05-07 13:12 43.52688 37.63731 36202 ft 494 kts 213°
2026-05-07 13:13 43.46921 37.58551 36204 ft 494 kts 213°
2026-05-07 13:13 43.41195 37.53424 36204 ft 494 kts 213°
2026-05-07 13:14 43.35423 37.48266 36195 ft 494 kts 213°
2026-05-07 13:14 43.29657 37.43123 36202 ft 494 kts 213°
2026-05-07 13:15 43.23891 37.37991 36201 ft 494 kts 213°
2026-05-07 13:15 43.18120 37.32867 36198 ft 494 kts 213°
2026-05-07 13:16 43.12345 37.27748 36210 ft 494 kts 213°
2026-05-07 13:16 43.06607 37.22680 36199 ft 494 kts 213°
2026-05-07 13:17 43.00813 37.17595 36196 ft 494 kts 213°
2026-05-07 13:17 42.95031 37.12532 36196 ft 494 kts 213°
2026-05-07 13:18 42.89236 37.07465 36195 ft 494 kts 213°
2026-05-07 13:18 42.83448 37.02413 36195 ft 494 kts 213°
2026-05-07 13:19 42.77661 36.97373 36196 ft 493 kts 213°
2026-05-07 13:19 42.72184 36.91798 36182 ft 491 kts 227°
2026-05-07 13:20 42.68151 36.84386 36183 ft 486 kts 244°
2026-05-07 13:20 42.65221 36.76187 36184 ft 486 kts 246°
2026-05-07 13:21 42.62292 36.67912 36189 ft 485 kts 245°
2026-05-07 13:21 42.59318 36.59681 36185 ft 486 kts 245°
2026-05-07 13:22 42.56312 36.51471 36186 ft 486 kts 245°
2026-05-07 13:22 42.53288 36.43253 36185 ft 486 kts 245°
2026-05-07 13:23 42.50267 36.35057 36183 ft 486 kts 245°
2026-05-07 13:23 42.47241 36.26869 36176 ft 486 kts 245°
2026-05-07 13:24 42.44231 36.18746 36177 ft 485 kts 245°
2026-05-07 13:24 42.41201 36.10595 36176 ft 484 kts 245°
2026-05-07 13:25 42.38680 36.03828 36179 ft 484 kts 245°
2026-05-07 13:25 42.35645 35.95706 36179 ft 483 kts 245°
2026-05-07 13:26 42.32605 35.87592 36190 ft 483 kts 245°
2026-05-07 13:26 42.29564 35.79498 36167 ft 483 kts 245°
2026-05-07 13:27 42.26519 35.71416 36159 ft 483 kts 246°
2026-05-07 13:27 42.23466 35.63334 36180 ft 483 kts 246°
2026-05-07 13:28 42.20412 35.55275 36168 ft 483 kts 245°
2026-05-07 13:28 42.17350 35.47210 36156 ft 483 kts 245°
2026-05-07 13:29 42.14297 35.39194 36161 ft 484 kts 246°
2026-05-07 13:29 42.11241 35.31121 36159 ft 484 kts 246°
2026-05-07 13:30 42.08184 35.23050 36162 ft 484 kts 246°
2026-05-07 13:30 42.05115 35.14980 36160 ft 484 kts 246°
2026-05-07 13:31 42.01474 35.07315 36152 ft 490 kts 234°
2026-05-07 13:31 41.96712 35.00686 36154 ft 495 kts 225°
2026-05-07 13:32 41.91523 34.94576 36148 ft 496 kts 224°
2026-05-07 13:32 41.86343 34.88470 36132 ft 494 kts 225°
2026-05-07 13:33 41.81238 34.82391 36121 ft 494 kts 225°
2026-05-07 13:33 41.76122 34.76288 36114 ft 492 kts 225°
2026-05-07 13:34 41.68442 34.67151 36113 ft 492 kts 225°
2026-05-07 13:35 41.63326 34.61085 36110 ft 491 kts 225°
2026-05-07 13:35 41.58205 34.55026 36100 ft 491 kts 225°
2026-05-07 13:36 41.53101 34.48982 36104 ft 490 kts 225°
2026-05-07 13:36 41.48040 34.42972 36103 ft 490 kts 225°
2026-05-07 13:37 41.42951 34.36940 36087 ft 489 kts 225°
2026-05-07 13:37 41.37857 34.30920 36096 ft 490 kts 225°
2026-05-07 13:38 41.32748 34.24895 36101 ft 490 kts 225°
2026-05-07 13:38 41.27632 34.18891 36100 ft 490 kts 225°
2026-05-07 13:39 41.22507 34.12897 36098 ft 491 kts 225°
2026-05-07 13:39 41.17373 34.06903 36094 ft 491 kts 225°
2026-05-07 13:40 41.12274 34.00959 36108 ft 491 kts 225°
2026-05-07 13:40 41.07149 33.94998 36107 ft 490 kts 225°
2026-05-07 13:41 41.02007 33.89030 36109 ft 490 kts 225°
2026-05-07 13:41 40.96881 33.83091 36119 ft 489 kts 225°
2026-05-07 13:42 40.91748 33.77159 36101 ft 490 kts 225°
2026-05-07 13:42 40.86620 33.71247 36117 ft 490 kts 225°
2026-05-07 13:43 40.81457 33.65306 36120 ft 492 kts 225°
2026-05-07 13:43 40.76326 33.59414 36112 ft 493 kts 225°
2026-05-07 13:44 40.71141 33.53472 36106 ft 493 kts 225°
2026-05-07 13:44 40.65950 33.47536 36114 ft 493 kts 225°
2026-05-07 13:45 40.60761 33.41617 36099 ft 493 kts 226°
2026-05-07 13:45 40.55571 33.35709 36139 ft 493 kts 226°
2026-05-07 13:46 40.50374 33.29803 36113 ft 494 kts 225°
2026-05-07 13:46 40.45171 33.23904 36122 ft 494 kts 226°
2026-05-07 13:47 40.39972 33.18024 36137 ft 493 kts 226°
2026-05-07 13:47 40.34773 33.12153 36145 ft 493 kts 226°
2026-05-07 13:48 40.29575 33.06298 36139 ft 492 kts 226°
2026-05-07 13:48 40.24423 33.00507 36153 ft 491 kts 226°
2026-05-07 13:49 40.19231 32.94679 36163 ft 491 kts 226°
2026-05-07 13:49 40.14046 32.88871 36154 ft 490 kts 226°
2026-05-07 13:50 40.08844 32.83097 36161 ft 492 kts 224°
2026-05-07 13:50 40.03059 32.78182 36136 ft 501 kts 212°
2026-05-07 13:51 39.96826 32.74081 36148 ft 502 kts 212°
2026-05-07 13:51 39.90586 32.69980 36151 ft 502 kts 212°
2026-05-07 13:52 39.84352 32.65830 36154 ft 503 kts 212°
2026-05-07 13:52 39.78134 32.61675 36144 ft 503 kts 212°
2026-05-07 13:53 39.71901 32.57520 36143 ft 502 kts 212°
2026-05-07 13:53 39.65729 32.53415 36150 ft 501 kts 212°
2026-05-07 13:54 39.59532 32.49303 36169 ft 500 kts 212°
2026-05-07 13:54 39.53344 32.45206 36166 ft 499 kts 212°
2026-05-07 13:55 39.47158 32.41116 36164 ft 499 kts 212°
2026-05-07 13:55 39.40956 32.37025 36146 ft 499 kts 212°
2026-05-07 13:56 39.34767 32.32963 36171 ft 498 kts 212°
2026-05-07 13:56 39.28579 32.28934 36675 ft 493 kts 212°
2026-05-07 13:56 39.25534 32.26958 37176 ft 490 kts 212°
2026-05-07 13:57 39.22469 32.24965 37156 ft 495 kts 212°
2026-05-07 13:57 39.16281 32.20940 37172 ft 499 kts 212°
2026-05-07 13:58 39.10104 32.16937 37161 ft 495 kts 212°
2026-05-07 13:58 39.03964 32.12966 37157 ft 492 kts 212°
2026-05-07 13:59 38.97840 32.09010 37166 ft 491 kts 212°
2026-05-07 13:59 38.91746 32.05080 37158 ft 491 kts 212°
2026-05-07 14:00 38.85626 32.01142 37172 ft 492 kts 212°
2026-05-07 14:00 38.79502 31.97208 37181 ft 494 kts 212°
2026-05-07 14:01 38.73381 31.93284 37176 ft 495 kts 212°
2026-05-07 14:01 38.67195 31.89327 37173 ft 497 kts 212°
2026-05-07 14:02 38.61011 31.85379 37173 ft 498 kts 211°
2026-05-07 14:02 38.54798 31.81421 37182 ft 498 kts 211°
2026-05-07 14:03 38.48608 31.77485 37171 ft 498 kts 212°
2026-05-07 14:03 38.42401 31.73545 37178 ft 498 kts 211°
2026-05-07 14:04 38.36243 31.69643 37184 ft 498 kts 211°
2026-05-07 14:04 38.30037 31.65719 37181 ft 497 kts 211°
2026-05-07 14:05 38.23850 31.61814 37188 ft 497 kts 211°
2026-05-07 14:05 38.17646 31.57904 37186 ft 496 kts 211°
2026-05-07 14:06 38.11464 31.54018 37173 ft 496 kts 211°
2026-05-07 14:06 38.05239 31.50223 37190 ft 495 kts 210°
2026-05-07 14:07 37.99001 31.46505 37183 ft 496 kts 210°
2026-05-07 14:07 37.92748 31.42774 37176 ft 497 kts 210°
2026-05-07 14:08 37.86501 31.39036 37189 ft 496 kts 210°
2026-05-07 14:08 37.80256 31.35302 37188 ft 496 kts 210°
2026-05-07 14:09 37.74043 31.31594 37177 ft 496 kts 210°
2026-05-07 14:09 37.67795 31.27872 37182 ft 496 kts 210°
2026-05-07 14:10 37.61573 31.24174 37156 ft 496 kts 210°
2026-05-07 14:10 37.55290 31.20446 37165 ft 497 kts 210°
2026-05-07 14:11 37.49077 31.16769 37158 ft 496 kts 210°
2026-05-07 14:11 37.42832 31.13074 37140 ft 496 kts 210°
2026-05-07 14:12 37.36578 31.09375 37161 ft 494 kts 211°
2026-05-07 14:12 37.30503 31.05392 37138 ft 492 kts 213°
2026-05-07 14:13 37.25499 31.01955 37120 ft 492 kts 214°
2026-05-07 14:13 37.19492 30.97850 37128 ft 491 kts 213°
2026-05-07 14:14 37.13507 30.93802 37107 ft 492 kts 213°
2026-05-07 14:14 37.07474 30.89736 37106 ft 492 kts 213°
2026-05-07 14:15 37.01435 30.85670 37098 ft 492 kts 213°
2026-05-07 14:15 36.95019 30.82664 37101 ft 505 kts 188°
2026-05-07 14:15 36.91481 30.82888 37099 ft 514 kts 169°
2026-05-07 14:16 36.88132 30.84320 37114 ft 519 kts 154°
2026-05-07 14:16 36.85125 30.86830 37092 ft 519 kts 139°
2026-05-07 14:16 36.82440 30.89852 37111 ft 521 kts 137°
2026-05-07 14:17 36.77102 30.96022 37106 ft 524 kts 137°
2026-05-07 14:17 36.71709 31.02171 37099 ft 526 kts 137°
2026-05-07 14:18 36.66249 31.08272 37095 ft 527 kts 138°
2026-05-07 14:18 36.60764 31.14347 37097 ft 527 kts 138°
2026-05-07 14:19 36.55328 31.20356 37099 ft 526 kts 138°
2026-05-07 14:19 36.49846 31.26412 37105 ft 523 kts 138°
2026-05-07 14:20 36.44423 31.32393 37103 ft 521 kts 138°
2026-05-07 14:20 36.39031 31.38330 37101 ft 519 kts 138°
2026-05-07 14:21 36.33638 31.44257 37105 ft 517 kts 138°
2026-05-07 14:21 36.28242 31.50175 37112 ft 516 kts 139°
2026-05-07 14:22 36.22883 31.56040 37119 ft 516 kts 139°
2026-05-07 14:22 36.17488 31.61934 37111 ft 516 kts 139°
2026-05-07 14:23 36.12130 31.67776 37115 ft 516 kts 139°
2026-05-07 14:23 36.06721 31.73663 37115 ft 517 kts 139°
2026-05-07 14:24 36.01324 31.79526 37118 ft 517 kts 139°
2026-05-07 14:24 35.95895 31.85412 36519 ft 521 kts 139°
2026-05-07 14:24 35.93181 31.88351 35951 ft 518 kts 139°
2026-05-07 14:25 35.90470 31.91283 35228 ft 517 kts 139°
2026-05-07 14:25 35.87791 31.94178 34410 ft 519 kts 139°
2026-05-07 14:25 35.85059 31.97127 33441 ft 522 kts 139°
2026-05-07 14:25 35.82306 32.00096 32465 ft 525 kts 139°
2026-05-07 14:26 35.79554 32.03061 31530 ft 526 kts 139°
2026-05-07 14:26 35.76794 32.06033 30584 ft 528 kts 139°
2026-05-07 14:26 35.74029 32.09006 29718 ft 526 kts 139°
2026-05-07 14:26 35.71279 32.11961 29022 ft 520 kts 139°
2026-05-07 14:27 35.68607 32.14829 28427 ft 513 kts 139°
2026-05-07 14:27 35.65928 32.17702 27820 ft 507 kts 139°
2026-05-07 14:27 35.63277 32.20543 27175 ft 502 kts 139°
2026-05-07 14:27 35.60646 32.23359 26517 ft 498 kts 139°
2026-05-07 14:28 35.58038 32.26149 25913 ft 494 kts 139°
2026-05-07 14:28 35.55459 32.28905 25334 ft 489 kts 139°
2026-05-07 14:28 35.52902 32.31634 24744 ft 485 kts 139°
2026-05-07 14:28 35.50357 32.34348 24155 ft 482 kts 139°
2026-05-07 14:29 35.47870 32.37000 23600 ft 478 kts 139°
2026-05-07 14:29 35.45362 32.39670 22959 ft 474 kts 139°
2026-05-07 14:29 35.42872 32.42320 22363 ft 469 kts 139°
2026-05-07 14:29 35.40412 32.44935 21813 ft 465 kts 139°
2026-05-07 14:30 35.38008 32.47488 21260 ft 460 kts 139°
2026-05-07 14:30 35.35588 32.50056 20697 ft 456 kts 139°
2026-05-07 14:30 35.33186 32.52604 20151 ft 453 kts 139°
2026-05-07 14:30 35.30815 32.55116 19603 ft 449 kts 139°
2026-05-07 14:31 35.28471 32.57598 19051 ft 440 kts 139°
2026-05-07 14:31 35.26171 32.60031 18177 ft 433 kts 139°
2026-05-07 14:31 35.23931 32.62399 17173 ft 428 kts 139°
2026-05-07 14:31 35.21699 32.64755 16374 ft 418 kts 139°
2026-05-07 14:32 35.19536 32.67038 15831 ft 403 kts 139°
2026-05-07 14:32 35.17454 32.69233 15317 ft 389 kts 139°
2026-05-07 14:32 35.15431 32.71365 14809 ft 378 kts 139°
2026-05-07 14:32 35.13455 32.73446 14329 ft 374 kts 138°
2026-05-07 14:33 35.11448 32.75559 13838 ft 387 kts 138°
2026-05-07 14:33 35.09381 32.77735 13254 ft 396 kts 138°
2026-05-07 14:33 35.07318 32.79904 12715 ft 396 kts 138°
2026-05-07 14:33 35.05230 32.82097 12168 ft 392 kts 138°
2026-05-07 14:34 35.03170 32.84259 11639 ft 389 kts 137°
2026-05-07 14:34 35.01120 32.86411 11160 ft 385 kts 138°
2026-05-07 14:34 34.99140 32.88484 10984 ft 373 kts 137°
2026-05-07 14:34 34.97187 32.90530 10724 ft 365 kts 137°
2026-05-07 14:35 34.95288 32.92519 10501 ft 356 kts 137°
2026-05-07 14:35 34.93426 32.94468 10321 ft 346 kts 137°
2026-05-07 14:35 34.91623 32.96352 10175 ft 335 kts 137°
2026-05-07 14:35 34.89881 32.98172 10048 ft 324 kts 137°
2026-05-07 14:36 34.88189 32.99941 9848 ft 317 kts 137°
2026-05-07 14:36 34.86559 33.01643 9703 ft 308 kts 137°
2026-05-07 14:36 34.84940 33.03333 9420 ft 304 kts 137°
2026-05-07 14:36 34.83212 33.04740 9094 ft 299 kts 159°
2026-05-07 14:37 34.81168 33.05110 8692 ft 301 kts 185°
2026-05-07 14:37 34.77625 33.02754 7945 ft 297 kts 233°
2026-05-07 14:37 34.76634 33.00602 7582 ft 287 kts 250°
2026-05-07 14:38 34.75877 32.98411 7228 ft 277 kts 249°
2026-05-07 14:38 34.75122 32.96278 6911 ft 268 kts 249°
2026-05-07 14:38 34.74378 32.94186 6608 ft 271 kts 249°
2026-05-07 14:38 34.73624 32.92073 6273 ft 273 kts 249°
2026-05-07 14:39 34.72863 32.89953 5929 ft 274 kts 249°
2026-05-07 14:39 34.72103 32.87838 5615 ft 274 kts 248°
2026-05-07 14:39 34.71336 32.85715 5284 ft 273 kts 248°
2026-05-07 14:39 34.70587 32.83645 4982 ft 272 kts 248°
2026-05-07 14:40 34.69822 32.81531 4651 ft 272 kts 248°
2026-05-07 14:40 34.69068 32.79452 4300 ft 263 kts 248°
2026-05-07 14:40 34.68352 32.77482 3995 ft 247 kts 248°
2026-05-07 14:40 34.67663 32.75581 3806 ft 243 kts 248°
2026-05-07 14:41 34.67083 32.73685 3692 ft 236 kts 262°
2026-05-07 14:41 34.66906 32.71714 3597 ft 232 kts 268°
2026-05-07 14:41 34.66803 32.69800 3283 ft 219 kts 267°
2026-05-07 14:41 34.66695 32.68003 3100 ft 209 kts 267°
2026-05-07 14:42 34.66626 32.66306 3006 ft 195 kts 278°
2026-05-07 14:42 34.66942 32.64734 2776 ft 189 kts 288°
2026-05-07 14:42 34.67338 32.63242 2411 ft 184 kts 290°
2026-05-07 14:42 34.67770 32.61787 2058 ft 176 kts 292°
2026-05-07 14:43 34.68178 32.60444 1833 ft 164 kts 293°
2026-05-07 14:43 34.68549 32.59217 1620 ft 148 kts 294°
2026-05-07 14:43 34.68910 32.58043 1421 ft 148 kts 292°
2026-05-07 14:43 34.69258 32.56892 1243 ft 146 kts 293°
2026-05-07 14:44 34.69605 32.55753 1056 ft 141 kts 292°
2026-05-07 14:44 34.69940 32.54648 871 ft 139 kts 291°
2026-05-07 14:44 34.70278 32.53539 682 ft 141 kts 291°
2026-05-07 14:44 34.70607 32.52422 472 ft 138 kts 295°
2026-05-07 14:45 34.70924 32.51375 312 ft 127 kts 296°
2026-05-07 14:45 34.71249 32.50338 200 ft 131 kts 295°
2026-05-07 14:45 34.71569 32.49272 52 ft 132 kts 293°
2026-05-07 14:45 34.71852 32.48373 50 ft 90 kts 290°
2026-05-07 14:46 34.72005 32.47869 47 ft 46 kts 290°
2026-05-07 14:46 34.72093 32.47581 49 ft 29 kts 290°
2026-05-07 14:46 34.72159 32.47363 49 ft 26 kts 291°
2026-05-07 14:47 34.72202 32.47219 46 ft 19 kts 106°
2026-05-07 14:47 34.72138 32.47428 47 ft 28 kts 108°
2026-05-07 14:48 34.72078 32.47634 47 ft 25 kts 110°
2026-05-07 14:48 34.72016 32.47835 46 ft 25 kts 110°
2026-05-07 14:48 34.71955 32.48036 50 ft 25 kts 110°
2026-05-07 14:48 34.71894 32.48237 49 ft 25 kts 110°
2026-05-07 14:49 34.71852 32.48373 50 ft 9 kts 114°
2026-05-07 14:49 34.71798 32.48406 46 ft 10 kts 191°
2026-05-07 14:49 34.71731 32.48385 49 ft 11 kts 197°
2026-05-07 14:49 34.71620 32.48339 50 ft 20 kts 199°
2026-05-07 14:50 34.71495 32.48283 45 ft 17 kts 201°
2026-05-07 14:50 34.71410 32.48292 50 ft 11 kts 121°
2026-05-07 14:50 34.71374 32.48372 50 ft 11 kts 131°
2026-05-07 14:50 34.71311 32.48401 48 ft 8 kts 161°
2026-05-07 14:51 34.71269 32.48419 48 ft 0 kts 160°